Flag for Germany Weather past 2 weeks in Recklinghausen, North Rhine-Westphalia, Germany

Now
44 °F

Passing clouds.


Feels Like: 40 °F
Forecast: 36 / 52 °F
Wind: 6 mph from West

Location: Duesseldorf

Current Time: Mar 27, 2015 at 5:08:11 AM

Latest Report: Mar 27, 2015 at 3:00 AM


Visibility: 16 mi

Pressure: 29.84 "Hg

Humidity: 80%

Dew point: 38 °F

Location of RecklinghausenLocation

Historic Weather in Recklinghausen — Graph

°F

Recklinghausen temperature yesterday

Maximum temperature yesterday: 48 °F (at 2:00 PM)
Minimum temperature yesterday: 41 °F (at 6:00 AM)
Average temperature yesterday: 43 °F

Past Weeks' High & Low Weather Summary

 TemperatureHumidityPressure
High65 °F (Mar 17, 3:00 PM)99% (Mar 20, 1:00 AM)30.50 "Hg (Mar 20, 1:00 AM)
Low26 °F (Mar 12, 5:00 AM)35% (Mar 17, 5:00 PM)29.66 "Hg (Mar 25, 2:00 AM)
Average43 °F78%30.16 "Hg
* Reported Mar 12 3:00 AM — Mar 27 3:00 AM, Recklinghausen, Weather by CustomWeather, © 2015

Note: Actual official high and low records may vary slightly from our data, if they occured in-between our weather recording intervals... More about our weather records

Advertising

Recklinghausen weather history for previous 24 hours

 ConditionsComfort  
Time TempWeatherWind HumidityBarometerVisibility
3:00 AM
Fri, Mar 27
44 °FPassing clouds.6 mph80%29.84 "Hg16 mi
2:00 AM44 °FOvercast.6 mph86%29.83 "Hg11 mi
1:00 AM41 °FPassing clouds.3 mph93%29.81 "Hg9 mi
12:00 AM43 °FPassing clouds.5 mph93%29.79 "Hg9 mi
11:00 PM
Thu, Mar 26
43 °FOvercast.3 mph92%29.78 "Hg10 mi
10:00 PM42 °FDrizzle. Low clouds.6 mph91%29.77 "Hg9 mi
9:00 PM41 °FRain. Low clouds.7 mph93%29.75 "Hg6 mi
8:00 PM41 °FLight rain. Low clouds.6 mph92%29.75 "Hg6 mi
7:00 PM41 °FRain. Overcast.8 mph83%29.74 "Hg8 mi
6:00 PM41 °FRain. Overcast.8 mph81%29.74 "Hg6 mi
5:00 PM43 °FLight rain. Overcast.8 mph72%29.75 "Hg12 mi
3:00 PM47 °FOvercast.6 mph54%29.73 "Hg16 mi
2:00 PM48 °FOvercast.6 mph56%29.75 "Hg16 mi
1:00 PM47 °FPartly sunny.5 mph57%29.76 "Hg16 mi
12:00 PM45 °FOvercast.6 mph61%29.79 "Hg14 mi
11:00 AM45 °FOvercast.6 mph66%29.80 "Hg14 mi
9:00 AM42 °FOvercast.3 mph82%29.82 "Hg12 mi
8:00 AM41 °FOvercast.5 mph86%29.82 "Hg12 mi
7:00 AM41 °FLow clouds.2 mph86%29.81 "Hg12 mi
6:00 AM41 °FLow clouds.3 mph86%29.80 "Hg14 mi
5:00 AM41 °FLow clouds.3 mph89%29.80 "Hg7 mi
Weather by CustomWeather, © 2015

See weather overviewHow to use our weather pages